Location: Delia
(51.6321°N, 112.3740°W)
Time: 12:25:05
(UTC+00:00)

Envisat - Visible Passes

Search period start: 02 December 2021 00:00
Search period end: 12 December 2021 00:00
Orbit: 764 x 766 km, 98.2° (Epoch: 02 December)

Date Brightness Start Highest point End Pass type
(mag) Time Alt. Az. Time Alt. Az. Time Alt. Az.
02 Dec 6.4 01:29:15 10° W 01:29:46 10° W 01:30:16 10° WNW visible
02 Dec 4.8 11:48:12 10° NNE 11:52:41 30° E 11:57:09 10° SSE visible
02 Dec 3.2 13:27:02 10° N 13:31:53 46° WNW 13:36:43 10° SW visible
03 Dec 5.7 00:48:33 10° SW 00:52:20 21° W 00:56:09 10° NW visible
03 Dec 5.7 11:12:20 10° NE 11:15:24 16° E 11:18:26 10° ESE visible
03 Dec 2.9 12:50:01 10° NNE 12:55:07 87° WNW 13:00:13 10° SSW visible
03 Dec 4.4 14:30:12 10° NNW 14:33:28 17° NW 14:36:43 10° W visible
04 Dec 4.6 00:10:22 10° SSW 00:15:08 40° W 00:19:56 10° NNW visible
04 Dec 3.9 12:13:13 10° NNE 12:18:10 48° E 12:23:05 10° S visible
04 Dec 3.7 13:52:36 10° N 13:57:01 30° WNW 14:01:23 10° WSW visible
05 Dec 6.1 01:15:44 10° WSW 01:18:01 13° W 01:20:17 10° WNW visible
05 Dec 5.1 11:36:51 10° NE 11:41:01 25° E 11:45:10 10° SSE visible
05 Dec 3.0 13:15:24 10° N 13:20:23 56° WNW 13:25:20 10° SW visible
06 Dec 5.4 00:36:29 10° SSW 00:40:39 25° W 00:44:52 10° NW visible
06 Dec 5.9 11:01:27 10° ENE 11:03:40 13° E 11:05:52 10° ESE visible
06 Dec 3.1 12:38:26 10° NNE 12:43:34 77° ESE 12:48:38 10° S visible
06 Dec 4.2 14:18:22 10° N 14:22:03 21° WNW 14:25:43 10° WSW visible
06 Dec 4.2 23:58:36 10° S 00:03:30 49° W 00:08:28 10° NNW visible
07 Dec 4.3 12:01:46 10° NNE 12:06:33 39° E 12:11:18 10° SSE visible
07 Dec 3.5 13:40:55 10° N 13:45:32 36° WNW 13:50:09 10° SW visible
08 Dec 5.9 01:03:12 10° SW 01:06:17 16° W 01:09:22 10° NW visible
08 Dec 5.4 11:25:33 10° NE 11:29:20 21° E 11:33:06 10° SE visible
08 Dec 2.9 13:03:47 10° N 13:08:51 68° WNW 13:13:53 10° SSW visible
09 Dec 5.1 00:24:31 10° SSW 00:28:59 31° W 00:33:30 10° NNW visible
09 Dec 3.4 12:26:54 10° NNE 12:31:58 63° ESE 12:37:01 10° S visible
09 Dec 4.0 14:06:35 10° N 14:10:37 24° WNW 14:14:38 10° WSW visible
10 Dec 4.6 11:50:20 10° NNE 11:54:54 32° E 11:59:26 10° SSE visible
10 Dec 3.3 13:29:15 10° N 13:34:04 43° WNW 13:38:50 10° SW visible
11 Dec 5.8 00:50:55 10° SW 00:54:34 20° W 00:58:14 10° NW visible
11 Dec 5.6 11:14:22 10° NE 11:17:38 17° E 11:20:52 10° SE visible
11 Dec 2.9 12:52:11 10° NNE 12:57:18 82° WNW 13:02:24 10° SSW visible
11 Dec 4.4 14:32:29 10° NNW 14:35:36 17° NW 14:38:43 10° W visible
